Location: Champs
(48.8539°N, 2.6040°E)
Time: 23:00:06
(UTC+00:00)

deb Kosmos-2150 - Pass Details

Date: 21 August 2022
Orbit: 749 x 758 km, 74.1° (Epoch: 24 September)

Event Time Altitude Azimuth Distance (km) Brightness Sun altitude
Rises 04:07:41 0° 160° (SSE) 3,186 ? -7.3°
Reaches altitude 10° 04:10:33 10° 144° (SE) 2,268 ? -6.9°
Maximum altitude 04:14:18 21° 97° (E) 1,655 ? -6.3°
Drops below altitude 10° 04:18:04 10° 50° (NE) 2,285 ? -5.8°
Sets 04:20:57 0° 35° (NE) 3,218 ? -5.3°
